15min,AgWx,evansfrm,411,05FEB2018:00:00:00,49.8,12.65,51.1,50.8,51.6,52.8,50.7,53,55,49,0.686,34.8,35.2,34.2,11.11,11.9,185,11,17.4,0.00054,0.00064,40.8,38.7,31,0,0,54.1,15.52,0.00,0.00
15min,AgWx,evansfrm,411,05FEB2018:00:15:00,49.8,12.64,51.1,51.0,50.5,51.1,49.9,55,57,53,0.676,35.1,35.5,34.5,10.81,8.9,189,13,13.2,0.00044,0.00054,40.8,38.7,31,0,0,53.2,15.52,0.00,0.00
15min,AgWx,evansfrm,411,05FEB2018:00:30:00,50.0,12.65,52.7,52.6,52.0,52.7,50.8,51,54,49,0.664,34.4,34.9,33.8,10.06,7.4,223,20,12.4,0.00047,0.00059,40.8,38.7,31,0,0,54.2,15.52,0.00,0.00
15min,AgWx,evansfrm,411,05FEB2018:00:45:00,50.4,12.65,52.7,52.7,52.5,52.9,52.0,49,51,48,0.664,34.0,34.6,33.6,8.51,7.6,231,33,13.4,0.00050,0.00062,40.7,38.7,31,0,0,54.8,15.52,0.00,0.00
15min,AgWx,evansfrm,411,05FEB2018:01:00:00,50.8,12.64,53.3,53.0,52.9,53.5,52.6,48,49,46,0.651,33.7,34.1,33.3,17.38,9.4,234,23,18.0,0.00056,0.00069,40.8,38.7,31,0,0,55.1,15.52,0.00,0.00
15min,AgWx,evansfrm,411,05FEB2018:01:15:00,51.1,12.65,52.6,52.3,52.8,53.3,52.3,48,50,47,0.659,33.7,34.2,33.1,12.91,8.6,264,26,15.2,0.00054,0.00067,40.8,38.7,31,0,0,54.7,15.52,0.00,0.00
15min,AgWx,evansfrm,411,05FEB2018:01:30:00,51.1,12.64,52.3,52.2,52.0,52.4,51.5,50,52,49,0.654,34.2,34.7,33.7,9.1,9.6,260,26,16.7,0.00053,0.00064,40.8,38.8,31,0,0,53.8,15.52,0.00,0.00
15min,AgWx,evansfrm,411,05FEB2018:01:45:00,51.0,12.58,50.3,49.9,51.2,52.4,49.9,53,57,49,0.696,34.7,35.7,33.9,5.196,6.9,235,25,15.7,0.00042,0.00054,40.8,38.8,31,0,0,53.2,15.52,0.00,0.00
15min,AgWx,evansfrm,411,05FEB2018:02:00:00,50.6,12.65,50.7,50.7,50.5,51.0,50.0,55,57,54,0.693,35.1,35.5,34.6,1.688,5.4,284,42,11.3,0.00035,0.00046,40.7,38.7,31,0,16,52.5,15.53,0.00,0.00
15min,AgWx,evansfrm,411,05FEB2018:02:15:00,49.4,12.64,47.8,47.7,48.9,50.7,47.4,63,68,55,0.753,36.8,37.7,35.1,6.62,6.2,323,27,12.2,0.00030,0.00038,40.7,38.8,31,0,100,47.5,15.54,0.01,0.00
15min,AgWx,evansfrm,411,05FEB2018:02:30:00,48.1,12.64,47.7,47.9,47.7,47.9,47.5,66,67,65,0.740,37.1,37.3,36.7,1.929,2.6,286,47,7.8,0.00016,0.00023,40.7,38.5,31,0,100,48.6,15.54,0.00,0.00
15min,AgWx,evansfrm,411,05FEB2018:02:45:00,47.1,12.64,47.5,47.8,47.8,48.0,47.4,65,67,64,0.731,36.7,37.1,36.4,1.469,1.9,324,33,3.9,0.00013,0.00019,40.7,39.0,31,0,100,49.6,15.53,0.00,0.00
15min,AgWx,evansfrm,411,05FEB2018:03:00:00,46.6,12.64,47.4,47.3,47.6,47.9,47.3,65,66,64,0.734,36.5,36.8,36.1,1.052,0.7,33,46,2.7,0.00006,0.00010,40.7,38.8,31,0,9,50.4,15.54,0.00,0.00
15min,AgWx,evansfrm,411,05FEB2018:03:15:00,46.2,12.64,48.2,48.1,47.4,48.5,46.7,66,69,62,0.721,36.6,37.2,35.8,5.217,3.9,31,56,9.7,0.00020,0.00028,40.7,38.7,31,0,0,50.4,15.53,0.00,0.00
15min,AgWx,evansfrm,411,05FEB2018:03:30:00,46.4,12.64,47.5,47.4,47.2,48.1,46.7,66,68,63,0.726,36.6,37.1,36.2,1.907,4.4,18,35,7.7,0.00022,0.00029,40.7,38.7,31,0,0,50.3,15.53,0.00,0.00
15min,AgWx,evansfrm,411,05FEB2018:03:45:00,46.6,12.64,48.5,48.2,47.7,48.3,46.9,64,67,61,0.712,36.2,36.8,35.6,4.735,5.0,38,32,12.9,0.00025,0.00033,40.7,38.7,31,0,0,50.6,15.53,0.00,0.00
15min,AgWx,evansfrm,411,05FEB2018:04:00:00,46.8,12.64,48.4,48.1,47.8,48.3,47.2,63,65,62,0.710,36.0,36.4,35.7,8.18,4.4,39,26,9.5,0.00024,0.00032,40.6,38.3,31,0,0,50.6,15.53,0.00,0.00
15min,AgWx,evansfrm,411,05FEB2018:04:15:00,47.0,12.63,48.5,48.2,48.6,49.0,48.1,61,63,59,0.709,35.6,36.1,35.2,5.13,5.8,23,43,14.5,0.00031,0.00040,40.6,38.5,31,0,0,51.2,15.53,0.00,0.00
15min,AgWx,evansfrm,411,05FEB2018:04:30:00,47.1,12.63,47.8,47.5,48.2,48.7,47.5,62,64,59,0.720,35.7,36.2,35.1,3.113,3.3,3.9,25,7.0,0.00021,0.00030,40.6,38.8,31,0,0,51.3,15.53,0.00,0.00
15min,AgWx,evansfrm,411,05FEB2018:04:45:00,47.1,12.64,47.5,47.3,47.2,47.7,46.7,65,68,63,0.705,36.2,36.6,35.6,3.508,3.7,14,31,6.2,0.00020,0.00028,40.6,38.8,31,0,0,50.7,15.53,0.00,0.00
15min,AgWx,evansfrm,411,05FEB2018:05:00:00,47.0,12.63,48.4,48.4,47.5,48.4,46.7,64,67,61,0.703,36.0,36.5,35.3,4.516,3.5,0.6,27,7.4,0.00021,0.00028,40.6,38.5,31,0,0,50.8,15.53,0.00,0.00
15min,AgWx,evansfrm,411,05FEB2018:05:15:00,47.1,12.63,48.1,47.7,48.2,48.8,47.5,61,64,59,0.698,35.5,36.1,35.0,4.626,4.9,341,44,9.2,0.00027,0.00036,40.6,38.8,31,0,0,51.0,15.53,0.00,0.00
15min,AgWx,evansfrm,411,05FEB2018:05:30:00,47.1,12.63,47.9,47.7,47.4,48.0,46.6,64,67,61,0.699,35.7,36.3,35.2,10.28,6.0,15,20,12.6,0.00028,0.00035,40.5,38.7,31,0,0,50.4,15.53,0.00,0.00
15min,AgWx,evansfrm,411,05FEB2018:05:45:00,47.1,12.63,48.3,48.2,47.7,48.2,47.2,61,63,58,0.669,35.1,35.7,34.3,5.875,7.2,11,26,14.2,0.00032,0.00040,40.5,38.7,31,0,0,50.4,15.53,0.00,0.00
15min,AgWx,evansfrm,411,05FEB2018:06:00:00,47.2,12.56,47.6,47.3,47.7,48.4,47.2,60,62,58,0.679,34.7,35.1,34.3,12.28,7.1,24,27,14.2,0.00033,0.00041,40.6,38.7,31,0,0,50.3,15.53,0.00,0.00
15min,AgWx,evansfrm,411,05FEB2018:06:15:00,47.1,12.63,47.3,47.3,47.2,47.7,46.7,61,63,60,0.661,34.6,35.0,34.0,2.674,6.9,8.0,20,13.9,0.00032,0.00039,40.5,38.5,31,0,0,49.6,15.53,0.00,0.00
15min,AgWx,evansfrm,411,05FEB2018:06:30:00,46.8,12.62,46.2,46.1,47.0,47.5,46.1,60,62,59,0.661,33.9,34.2,33.5,6.029,5.4,16,34,12.0,0.00028,0.00037,40.4,38.8,31,0,0,48.7,15.53,0.00,0.00
15min,AgWx,evansfrm,411,05FEB2018:06:45:00,46.3,12.62,46.0,45.8,46.2,46.8,45.8,61,63,59,0.650,33.7,33.9,33.2,3.771,5.8,25,21,10.3,0.00028,0.00036,40.5,38.8,31,0,0,47.9,15.53,0.00,0.00
15min,AgWx,evansfrm,411,05FEB2018:07:00:00,45.7,12.62,45.6,45.4,45.7,46.1,45.4,62,63,61,0.642,33.3,33.7,32.9,4.691,5.0,1.7,30,9.1,0.00026,0.00033,40.4,38.8,31,0,0,47.2,15.53,0.00,0.00
15min,AgWx,evansfrm,411,05FEB2018:07:15:00,45.2,12.62,45.3,45.3,45.5,46.0,44.7,61,63,60,0.640,33.0,33.2,32.6,4.341,4.8,0.3,20,7.7,0.00025,0.00033,40.3,38.5,31,0,0,47.0,15.53,0.00,0.00
15min,AgWx,evansfrm,411,05FEB2018:07:30:00,44.8,12.62,45.1,44.9,45.5,45.9,44.9,61,63,61,0.634,33.0,33.2,32.8,1.732,4.6,323,29,10.7,0.00025,0.00032,40.4,38.8,31,1,0,46.8,15.53,0.00,0.00
15min,AgWx,evansfrm,411,05FEB2018:07:45:00,44.4,12.62,45.3,45.3,45.3,45.6,44.8,62,63,61,0.636,33.0,33.1,32.7,4.472,4.6,302,18,8.1,0.00025,0.00033,40.2,38.5,31,4,0,46.8,15.53,0.00,0.00
15min,AgWx,evansfrm,411,05FEB2018:08:00:00,44.3,12.62,45.3,45.3,45.7,46.4,45.3,60,62,58,0.632,32.8,33.1,32.4,5.217,5.3,311,21,12.3,0.00017,0.00047,40.2,38.8,31,16,0,47.5,15.53,0.00,0.00
15min,AgWx,evansfrm,411,05FEB2018:08:15:00,44.1,12.63,45.8,45.9,45.3,45.9,45.0,61,62,58,0.616,32.7,33.0,32.2,2.126,3.0,332,21,6.9,0.00009,0.00028,40.2,38.5,31,32,0,47.9,15.53,0.00,0.00
15min,AgWx,evansfrm,411,05FEB2018:08:30:00,44.3,12.64,45.7,45.5,46.1,46.5,45.5,58,60,56,0.619,32.1,32.5,31.6,1.754,3.2,338,27,6.8,0.00029,0.00051,40.1,38.7,31,51,0,49.4,15.53,0.00,0.00
15min,AgWx,evansfrm,411,05FEB2018:08:45:00,44.3,12.65,45.2,45.4,45.2,45.6,44.5,62,64,60,0.624,32.9,33.4,32.3,2.389,2.3,354,20,3.9,0.00033,0.00048,39.9,38.5,31,67,0,50.0,15.53,0.00,0.00
15min,AgWx,evansfrm,411,05FEB2018:09:00:00,44.5,12.67,45.1,45.0,45.0,45.5,44.7,63,65,60,0.643,33.1,33.8,32.3,3.332,2.7,35,19,5.5,0.00046,0.00064,39.9,38.5,31,85,0,50.6,15.53,0.00,0.00
15min,AgWx,evansfrm,411,05FEB2018:09:15:00,44.7,12.68,45.4,45.2,45.0,45.4,44.8,65,66,63,0.664,33.8,34.5,33.3,2.324,2.4,0.3,30,3.7,0.00053,0.00070,39.9,38.7,31,102,0,51.2,15.53,0.00,0.00
15min,AgWx,evansfrm,411,05FEB2018:09:30:00,45.0,12.71,46.2,46.1,45.5,46.1,45.1,63,65,60,0.632,33.8,34.3,32.9,2.411,2.3,26,21,3.7,0.00064,0.00081,39.9,38.5,31,123,0,52.8,15.53,0.00,0.00
15min,AgWx,evansfrm,411,05FEB2018:09:45:00,45.5,12.75,46.7,46.8,46.4,46.8,46.1,60,62,58,0.629,33.5,34.3,32.6,3.069,2.0,14,34,6.7,0.00075,0.00092,39.9,38.5,31,145,0,54.8,15.53,0.00,0.00
15min,AgWx,evansfrm,411,05FEB2018:10:00:00,46.2,12.8,47.3,47.1,46.9,47.2,46.7,58,60,57,0.636,33.1,33.8,32.3,2.85,3.6,45,19,7.2,0.00097,0.00126,39.9,38.7,31,169,0,55.0,15.53,0.00,0.00
15min,AgWx,evansfrm,411,05FEB2018:10:15:00,47.1,12.83,48.0,47.9,47.7,47.9,47.2,55,58,53,0.620,32.3,33.2,31.4,5.152,4.1,1.0,22,6.9,0.00117,0.00152,39.9,38.5,31,198,0,56.0,15.53,0.00,0.00
15min,AgWx,evansfrm,411,05FEB2018:10:30:00,47.7,12.85,47.5,47.3,47.5,47.9,47.3,56,58,54,0.631,32.6,33.2,32.0,4.384,5.5,31,18,9.0,0.00124,0.00166,39.9,38.3,31,190,0,55.2,15.53,0.00,0.00
15min,AgWx,evansfrm,411,05FEB2018:10:45:00,48.1,12.88,47.6,47.6,47.4,47.6,47.3,56,58,54,0.615,32.4,33.2,31.4,5.787,5.7,35,18,10.2,0.00129,0.00173,40.1,38.5,31,199,0,55.0,15.53,0.00,0.00
15min,AgWx,evansfrm,411,05FEB2018:11:00:00,48.5,12.88,47.5,47.4,47.6,47.9,47.3,55,57,54,0.620,32.4,33.4,31.7,5.831,5.1,29,16,8.0,0.00129,0.00171,40.0,38.5,31,200,0,55.9,15.53,0.00,0.00
15min,AgWx,evansfrm,411,05FEB2018:11:15:00,48.8,12.89,47.5,47.3,47.4,47.5,47.2,54,56,53,0.594,31.7,32.5,30.7,2.916,7.1,15,12,12.4,0.00136,0.00188,40.2,38.5,31,183,0,54.9,15.53,0.00,0.00
15min,AgWx,evansfrm,411,05FEB2018:11:30:00,49.0,12.89,47.6,47.3,47.3,47.5,47.2,54,55,53,0.598,31.6,32.2,30.8,7.541,6.3,18,14,10.5,0.00129,0.00176,40.2,38.5,31,170,0,54.6,15.53,0.00,0.00
15min,AgWx,evansfrm,411,05FEB2018:11:45:00,49.1,12.9,47.5,47.3,47.4,47.7,47.2,54,56,52,0.591,31.6,32.8,30.5,5.371,6.0,17,15,10.0,0.00131,0.00178,40.4,38.5,31,175,0,54.8,15.53,0.00,0.00
15min,AgWx,evansfrm,411,05FEB2018:12:00:00,49.1,12.87,47.3,47.2,47.3,47.4,47.1,54,55,52,0.604,31.4,32.2,30.7,4.823,4.8,19,13,7.4,0.00109,0.00148,40.4,38.5,31,128,0,54.0,15.53,0.00,0.00
15min,AgWx,evansfrm,411,05FEB2018:12:15:00,49.1,12.87,47.8,47.5,47.4,47.6,47.1,53,55,51,0.592,31.0,32.1,30.2,2.28,4.6,0.1,22,8.9,0.00114,0.00154,40.6,38.5,31,143,0,54.6,15.53,0.00,0.00
15min,AgWx,evansfrm,411,05FEB2018:12:30:00,49.5,12.83,48.2,47.7,47.7,47.9,47.5,54,55,52,0.605,31.7,32.6,31.0,3.858,2.6,325,20,5.2,0.00112,0.00138,40.7,38.7,31,172,0,57.8,15.53,0.00,0.00
15min,AgWx,evansfrm,411,05FEB2018:12:45:00,49.7,12.87,48.2,47.9,47.8,48.0,47.6,53,56,52,0.606,31.6,32.8,30.8,3.025,3.5,303,24,6.1,0.00111,0.00144,40.9,38.5,31,152,0,56.2,15.53,0.00,0.00
15min,AgWx,evansfrm,411,05FEB2018:13:00:00,49.8,12.87,48.2,47.7,47.8,48.0,47.7,54,56,52,0.610,31.9,32.9,31.1,3.442,3.3,315,22,8.1,0.00104,0.00134,40.9,38.5,31,138,0,55.8,15.53,0.00,0.00
15min,AgWx,evansfrm,411,05FEB2018:13:15:00,49.8,12.92,46.4,46.2,46.9,47.9,46.1,56,58,53,0.605,31.9,32.8,31.2,4.735,6.4,357,24,10.6,0.00144,0.00192,41.0,38.7,31,219,0,55.7,15.54,0.00,0.00
15min,AgWx,evansfrm,411,05FEB2018:13:30:00,49.7,12.94,46.0,45.9,46.1,46.5,45.7,58,60,56,0.633,32.0,32.9,31.2,5.963,5.3,42,22,8.9,0.00138,0.00178,41.2,38.5,31,227,0,55.7,15.53,0.00,0.00
15min,AgWx,evansfrm,411,05FEB2018:13:45:00,49.5,12.96,46.6,46.6,46.0,46.6,45.6,58,60,56,0.616,32.0,32.8,31.1,2.981,5.5,44,18,9.7,0.00134,0.00175,41.2,38.8,31,216,0,55.1,15.53,0.00,0.00
15min,AgWx,evansfrm,411,05FEB2018:14:00:00,49.8,13.02,47.2,47.2,47.1,47.4,46.6,54,57,51,0.604,31.1,32.6,30.0,2.806,3.9,38,24,7.6,0.00147,0.00184,41.3,38.5,31,256,0,57.4,15.54,0.00,0.00
15min,AgWx,evansfrm,411,05FEB2018:14:15:00,50.0,13,47.3,47.3,47.3,47.6,47.1,54,56,51,0.565,31.6,32.4,30.1,6.226,4.0,35,24,6.4,0.00126,0.00162,41.5,38.8,31,200,0,56.3,15.53,0.00,0.00
15min,AgWx,evansfrm,411,05FEB2018:14:30:00,50.4,13,48.1,47.7,47.7,48.2,47.2,52,54,50,0.584,31.0,32.1,30.0,1.447,2.9,12,35,6.0,0.00124,0.00154,41.6,38.5,31,207,0,58.0,15.53,0.00,0.00
15min,AgWx,evansfrm,411,05FEB2018:14:45:00,50.6,12.98,47.7,47.6,47.5,47.7,47.4,50,52,48,0.549,29.8,31.1,28.8,3.814,2.4,25,28,4.5,0.00100,0.00125,41.8,39.0,31,151,0,57.2,15.53,0.00,0.00
15min,AgWx,evansfrm,411,05FEB2018:15:00:00,50.5,12.96,47.8,47.7,47.5,47.7,47.3,50,54,49,0.557,29.8,31.8,29.0,0.46,1.6,353,43,3.2,0.00078,0.00097,41.9,38.8,31,112,0,56.1,15.53,0.00,0.00
15min,AgWx,evansfrm,411,05FEB2018:15:15:00,50.4,12.93,47.6,47.6,47.7,48.0,47.4,51,53,49,0.594,30.4,31.6,29.4,3.42,2.6,41,26,5.2,0.00091,0.00117,42.0,38.8,31,131,0,55.8,15.53,0.00,0.00
15min,AgWx,evansfrm,411,05FEB2018:15:30:00,50.0,12.91,47.4,47.3,47.4,47.6,47.1,51,53,50,0.579,30.1,30.9,29.2,2.28,2.9,47,25,5.0,0.00087,0.00115,42.1,39.0,31,118,0,54.0,15.54,0.00,0.00
15min,AgWx,evansfrm,411,05FEB2018:15:45:00,49.6,12.89,47.4,47.4,47.4,47.5,47.2,51,53,49,0.579,30.3,31.1,29.2,3.266,2.9,52,14,5.5,0.00079,0.00106,42.3,39.0,31,103,0,53.7,15.54,0.00,0.00
15min,AgWx,evansfrm,411,05FEB2018:16:00:00,49.4,12.93,47.9,47.7,47.6,47.9,47.3,51,53,49,0.565,30.4,31.6,29.4,3.486,2.6,63,19,4.3,0.00084,0.00110,42.4,39.2,31,146,0,55.2,15.54,0.00,0.00
15min,AgWx,evansfrm,411,05FEB2018:16:15:00,49.3,12.89,47.8,47.7,47.7,47.9,47.6,50,54,48,0.586,30.2,32.0,28.9,1.841,2.1,50,23,4.0,0.00065,0.00087,42.4,39.0,31,107,0,54.9,15.54,0.00,0.00
15min,AgWx,evansfrm,411,05FEB2018:16:30:00,49.1,12.87,47.6,47.4,47.6,47.8,47.3,50,53,48,0.553,29.8,31.4,29.0,1.513,1.8,40,67,3.3,0.00053,0.00071,42.5,39.7,31,91,0,54.2,15.54,0.00,0.00
15min,AgWx,evansfrm,411,05FEB2018:16:45:00,48.6,12.82,47.1,46.9,47.3,47.6,46.9,52,55,49,0.590,30.6,31.7,29.2,2.368,1.8,195,30,2.9,0.00040,0.00057,42.5,39.4,31,59,0,52.9,15.54,0.00,0.00
15min,AgWx,evansfrm,411,05FEB2018:17:00:00,47.9,12.79,46.4,46.3,46.6,46.9,46.2,54,56,52,0.585,31.0,31.6,30.2,2.236,1.9,209,18,3.5,0.00031,0.00047,42.6,39.2,31,43,0,51.0,15.54,0.00,0.00
15min,AgWx,evansfrm,411,05FEB2018:17:15:00,47.3,12.77,45.5,45.5,45.8,46.3,45.4,57,58,55,0.594,31.4,32.2,30.6,1.25,2.5,221,65,5.2,0.00023,0.00041,42.6,39.4,31,32,0,49.7,15.54,0.00,0.00
15min,AgWx,evansfrm,411,05FEB2018:17:30:00,46.4,12.74,45.1,45.4,44.9,45.5,44.6,59,63,55,0.564,31.6,32.8,30.0,1.71,1.5,60,46,2.4,0.00007,0.00018,42.6,39.2,31,14,0,48.4,15.54,0.00,0.00
15min,AgWx,evansfrm,411,05FEB2018:17:45:00,45.6,12.72,43.3,43.1,44.5,45.5,43.1,58,65,54,0.611,30.7,32.1,29.7,0,1.5,111,17,2.2,0.00012,0.00023,42.6,39.6,31,4,0,47.4,15.54,0.00,0.00
15min,AgWx,evansfrm,411,05FEB2018:18:00:00,44.5,12.7,41.5,41.6,42.2,43.1,41.6,67,69,65,0.617,32.1,32.4,31.8,0,0.5,136,12,2.9,0.00001,0.00003,42.5,39.4,31,1,0,45.3,15.54,0.00,0.00
15min,AgWx,evansfrm,411,05FEB2018:18:15:00,43.5,12.63,43.6,43.4,42.8,44.2,41.4,62,70,56,0.555,30.7,32.4,29.2,3.332,1.7,168,32,3.3,0.00009,0.00014,42.5,39.7,31,0,0,44.9,15.54,0.00,0.00
15min,AgWx,evansfrm,411,05FEB2018:18:30:00,42.9,12.68,43.2,43.3,43.2,44.2,42.2,58,62,54,0.545,29.4,30.6,28.5,3.157,3.5,151,8.2,4.2,0.00020,0.00027,42.5,39.4,31,0,0,45.8,15.54,0.00,0.00
15min,AgWx,evansfrm,411,05FEB2018:18:45:00,42.4,12.67,41.4,41.6,42.0,43.3,40.8,61,65,57,0.543,29.7,30.6,28.8,1.425,1.7,130,35,3.6,0.00009,0.00014,42.4,39.7,31,0,0,45.6,15.54,0.00,0.00
15min,AgWx,evansfrm,411,05FEB2018:19:00:00,42.2,12.62,42.4,42.5,41.6,43.1,41.0,63,66,55,0.514,30.0,30.9,27.6,1.425,2.8,48,53,6.9,0.00013,0.00019,42.3,39.4,31,0,0,45.3,15.54,0.00,0.00
15min,AgWx,evansfrm,411,05FEB2018:19:15:00,42.2,12.65,44.0,43.8,43.5,44.7,42.7,56,60,49,0.519,28.9,30.1,26.4,5.239,3.6,66,23,6.8,0.00021,0.00028,42.2,39.7,31,0,0,46.3,15.54,0.00,0.00
15min,AgWx,evansfrm,411,05FEB2018:19:30:00,42.4,12.64,43.6,43.3,43.9,44.9,43.2,51,56,46,0.486,27.1,29.0,25.2,1.863,3.0,32,44,6.1,0.00021,0.00029,42.1,39.6,31,0,0,46.8,15.54,0.00,0.00
15min,AgWx,evansfrm,411,05FEB2018:19:45:00,42.3,12.63,43.2,43.1,42.8,43.3,42.5,53,55,51,0.489,26.9,27.6,26.4,4.604,2.9,359,15,6.5,0.00019,0.00027,41.9,39.6,31,0,0,45.9,15.54,0.00,0.00
15min,AgWx,evansfrm,411,05FEB2018:20:00:00,42.2,12.63,42.6,42.5,43.1,43.6,42.5,52,54,49,0.486,26.6,27.1,25.7,1.14,2.8,11,22,6.4,0.00019,0.00027,41.9,39.4,31,0,0,45.9,15.54,0.00,0.00
15min,AgWx,evansfrm,411,05FEB2018:20:15:00,41.9,12.62,41.9,41.9,42.3,42.6,41.8,54,55,52,0.481,26.7,27.1,26.2,1.14,0.8,4.4,25,2.2,0.00005,0.00009,41.7,39.7,31,0,0,45.7,15.54,0.00,0.00
15min,AgWx,evansfrm,411,05FEB2018:20:30:00,41.8,12.62,43.7,43.3,42.8,43.5,41.9,48,53,45,0.436,24.5,26.3,23.1,2.083,2.8,51,11,5.2,0.00021,0.00029,41.6,39.9,31,0,0,46.0,15.54,0.00,0.00
15min,AgWx,evansfrm,411,05FEB2018:20:45:00,41.6,12.62,42.3,42.1,42.4,43.3,42.0,49,52,46,0.441,24.5,25.8,23.6,1.03,2.0,18,14,4.5,0.00015,0.00023,41.5,39.9,31,0,0,45.4,15.54,0.00,0.00
15min,AgWx,evansfrm,411,05FEB2018:21:00:00,41.4,12.61,42.2,42.2,42.0,42.5,41.4,48,51,44,0.430,23.7,25.0,22.2,3.793,2.4,55,25,4.7,0.00018,0.00026,41.5,39.7,31,0,0,45.2,15.54,0.00,0.00
15min,AgWx,evansfrm,411,05FEB2018:21:15:00,41.1,12.61,41.8,41.7,41.6,42.2,41.0,47,52,43,0.406,22.8,24.7,21.1,3.42,3.0,71,15,4.0,0.00021,0.00030,41.4,39.2,31,0,0,45.0,15.54,0.00,0.00
15min,AgWx,evansfrm,411,05FEB2018:21:30:00,41.0,12.61,41.2,41.2,41.2,42.0,40.2,49,53,43,0.422,23.5,25.6,21.0,3.113,4.1,105,11,5.1,0.00025,0.00033,41.3,39.7,31,0,0,45.1,15.54,0.00,0.00
15min,AgWx,evansfrm,411,05FEB2018:21:45:00,40.8,12.6,40.5,40.3,41.4,43.0,39.9,49,57,42,0.468,23.8,25.9,21.3,2.543,3.1,304,66,6.8,0.00021,0.00029,41.2,39.6,31,0,0,44.2,15.54,0.00,0.00
15min,AgWx,evansfrm,411,05FEB2018:22:00:00,40.2,12.6,39.5,39.7,39.4,40.2,38.8,56,60,52,0.448,25.2,26.2,23.5,1.754,1.9,317,41,4.0,0.00011,0.00017,41.0,39.9,30,0,0,42.0,15.54,0.00,0.00
15min,AgWx,evansfrm,411,05FEB2018:22:15:00,39.6,12.59,39.2,39.0,39.3,40.2,38.7,56,59,53,0.454,24.9,25.8,24.2,3.749,3.1,8.7,20,5.8,0.00017,0.00023,41.0,39.7,31,0,0,41.8,15.54,0.00,0.00
15min,AgWx,evansfrm,411,05FEB2018:22:30:00,39.2,12.59,38.8,39.1,39.0,39.4,38.7,57,58,55,0.456,25.0,25.4,24.4,1.381,2.7,354,28,4.8,0.00015,0.00021,40.9,39.4,31,0,0,41.7,15.54,0.00,0.00
15min,AgWx,evansfrm,411,05FEB2018:22:45:00,39.0,12.59,39.6,39.7,39.4,40.1,38.3,57,62,55,0.464,25.3,26.5,24.7,4.735,4.5,308,25,15.4,0.00021,0.00028,40.8,39.4,31,0,0,42.5,15.54,0.00,0.00
15min,AgWx,evansfrm,411,05FEB2018:23:00:00,38.9,12.59,38.7,38.7,39.0,39.7,38.6,58,60,56,0.481,25.6,26.2,25.1,8.79,4.7,311,19,10.3,0.00021,0.00027,40.7,39.7,31,0,0,41.2,15.54,0.00,0.00
15min,AgWx,evansfrm,411,05FEB2018:23:15:00,38.7,12.59,38.3,38.0,38.4,38.7,37.8,63,66,60,0.510,26.8,27.6,26.0,8.62,6.3,311,19,12.8,0.00021,0.00027,40.6,39.4,31,0,0,41.2,15.54,0.00,0.00
15min,AgWx,evansfrm,411,05FEB2018:23:30:00,38.7,12.59,37.9,37.6,37.7,38.0,37.5,67,68,66,0.517,27.9,28.1,27.5,5.042,5.2,335,26,11.1,0.00016,0.00021,40.4,39.4,31,0,0,41.0,15.54,0.00,0.00
15min,AgWx,evansfrm,411,05FEB2018:23:45:00,38.7,12.59,38.4,38.2,37.9,38.2,37.6,66,68,64,0.499,27.5,28.0,26.9,2.543,4.1,351,24,9.6,0.00015,0.00020,40.4,39.6,31,0,0,41.6,15.54,0.00,0.00
15min,AgWx,drainfrm,410,05FEB2018:00:00:00,46.0,12.35,48.9,49.6,48.8,49.6,48.0,63,66,59,0.717,36.6,37.4,35.8,3.354,4.7,203,23,8.5,0.00025,0.00034,37.9,36.7,64,0,100,50.5,14.61,0.00,0.00
15min,AgWx,drainfrm,410,05FEB2018:00:15:00,46.4,12.35,49.1,49.6,49.5,50.1,49.0,61,62,59,0.745,36.5,37.2,35.6,10.02,7.7,262,22,13.0,0.00035,0.00044,37.9,36.9,64,0,100,51.2,14.61,0.00,0.00
15min,AgWx,drainfrm,410,05FEB2018:00:30:00,47.0,12.35,50.7,51.2,50.3,51.3,49.4,59,62,55,0.711,36.4,36.9,35.6,17.23,13.7,244,9.1,21.1,0.00047,0.00054,37.9,36.5,64,0,100,51.7,14.61,0.00,0.00
15min,AgWx,drainfrm,410,05FEB2018:00:45:00,47.8,12.36,51.1,51.5,50.9,51.6,49.8,56,60,54,0.705,36.0,36.7,35.5,19.75,16.9,246,8.6,25.4,0.00054,0.00061,37.9,36.1,64,0,100,52.2,14.61,0.00,0.00
15min,AgWx,drainfrm,410,05FEB2018:01:00:00,48.3,12.36,49.8,50.2,50.6,51.8,50.1,58,60,53,0.723,36.3,36.9,35.3,20.23,17.6,256,8.5,23.8,0.00052,0.00059,37.9,37.0,64,0,100,52.0,14.61,0.00,0.00
15min,AgWx,drainfrm,410,05FEB2018:01:15:00,48.3,12.36,49.4,50.0,49.8,50.7,48.9,60,63,57,0.726,36.5,37.1,35.9,14.16,16.3,254,6.6,21.0,0.00047,0.00054,38.0,37.0,64,0,100,50.9,14.61,0.00,0.00
15min,AgWx,drainfrm,410,05FEB2018:01:30:00,48.3,12.36,49.2,49.5,49.5,50.2,48.7,61,64,58,0.724,36.7,37.3,36.0,16.18,15.0,259,6.5,20.7,0.00044,0.00051,38.0,37.4,64,0,100,50.9,14.61,0.00,0.00
15min,AgWx,drainfrm,410,05FEB2018:01:45:00,48.0,12.36,48.2,48.8,49.2,49.9,48.7,63,66,60,0.778,37.2,38.1,36.2,12.91,15.4,262,6.3,22.9,0.00042,0.00049,38.0,36.5,64,0,100,48.2,14.61,0.00,0.00
15min,AgWx,drainfrm,410,05FEB2018:02:00:00,47.1,12.36,47.9,48.3,47.8,48.6,47.0,71,74,66,0.762,38.8,39.6,37.6,17.63,13.4,274,8.0,20.3,0.00030,0.00035,38.1,36.1,64,0,100,45.1,14.62,0.01,0.01
15min,AgWx,drainfrm,410,05FEB2018:02:15:00,46.3,12.35,45.8,46.3,46.9,48.6,46.0,72,76,65,0.805,38.5,39.1,37.2,10.7,11.2,278,8.8,18.6,0.00027,0.00032,38.1,36.9,64,0,100,47.5,14.63,0.01,0.00
15min,AgWx,drainfrm,410,05FEB2018:02:30:00,46.0,12.35,46.0,46.5,46.4,47.0,45.9,75,77,72,0.815,39.0,39.3,38.5,7.958,10.7,275,8.3,15.0,0.00023,0.00027,38.1,36.7,64,0,100,47.9,14.63,0.00,0.00
15min,AgWx,drainfrm,410,05FEB2018:02:45:00,45.7,12.35,44.0,44.5,45.6,46.6,44.1,78,85,74,0.812,39.3,39.9,38.7,4.976,7.2,305,46,11.0,0.00017,0.00021,38.1,37.2,64,0,100,47.7,14.63,0.00,0.00
15min,AgWx,drainfrm,410,05FEB2018:03:00:00,45.3,12.35,45.6,46.0,44.9,46.3,44.0,79,83,73,0.781,38.9,39.5,38.1,6.05,5.2,7.5,14,8.9,0.00013,0.00017,38.1,36.7,64,0,100,47.3,14.63,0.00,0.00
15min,AgWx,drainfrm,410,05FEB2018:03:15:00,45.2,12.35,45.9,46.7,46.6,47.7,45.5,72,76,67,0.769,37.9,38.9,37.1,3.157,6.0,16,15,11.7,0.00021,0.00026,38.1,36.1,64,0,100,48.6,14.63,0.00,0.00
15min,AgWx,drainfrm,410,05FEB2018:03:30:00,45.0,12.35,45.6,46.1,46.6,47.1,46.1,71,73,69,0.771,37.6,38.2,37.2,2.653,3.1,3.8,33,6.2,0.00014,0.00020,38.1,37.0,64,0,100,48.0,14.63,0.00,0.00
15min,AgWx,drainfrm,410,05FEB2018:03:45:00,44.6,12.35,43.6,44.6,45.7,46.3,44.6,73,75,71,0.752,37.5,37.9,37.2,6.007,3.6,36,29,6.0,0.00014,0.00019,38.1,36.9,64,0,100,47.0,14.63,0.00,0.00
15min,AgWx,drainfrm,410,05FEB2018:04:00:00,44.0,12.35,44.8,45.3,44.2,45.4,42.7,77,82,73,0.753,37.4,37.9,37.0,6.379,5.5,60,14,7.4,0.00015,0.00019,38.0,37.4,64,0,100,45.6,14.63,0.00,0.00
15min,AgWx,drainfrm,410,05FEB2018:04:15:00,43.7,12.34,44.3,44.7,44.6,45.3,43.8,76,79,73,0.751,37.4,37.8,37.0,2.411,3.8,43,22,7.2,0.00013,0.00018,38.0,36.7,64,0,100,46.2,14.63,0.00,0.00
15min,AgWx,drainfrm,410,05FEB2018:04:30:00,43.5,12.34,45.4,46.0,45.2,46.3,44.3,74,77,69,0.757,37.3,37.9,36.8,3.486,3.1,50,18,6.6,0.00012,0.00017,38.0,37.0,64,0,100,47.1,14.63,0.00,0.00
15min,AgWx,drainfrm,410,05FEB2018:04:45:00,43.5,12.34,45.1,45.8,46.1,46.8,45.5,71,73,68,0.758,37.2,37.6,36.8,1.228,2.6,5.4,45,6.2,0.00012,0.00018,38.0,36.7,64,0,100,48.2,14.63,0.00,0.00
15min,AgWx,drainfrm,410,05FEB2018:05:00:00,43.5,12.35,45.3,46.0,45.9,46.1,45.6,70,72,69,0.736,36.9,37.3,36.5,3.661,1.6,28,79,4.8,0.00008,0.00012,38.0,36.7,64,0,100,48.0,14.63,0.00,0.00
15min,AgWx,drainfrm,410,05FEB2018:05:15:00,43.4,12.35,45.6,46.7,45.8,46.7,44.6,70,74,67,0.720,36.7,37.2,36.1,0.811,2.1,243,47,4.8,0.00011,0.00016,37.9,37.6,64,0,100,47.9,14.63,0.00,0.00
15min,AgWx,drainfrm,410,05FEB2018:05:30:00,43.5,12.35,48.1,48.6,47.2,48.7,45.8,64,70,59,0.690,35.8,36.9,35.0,2.565,3.7,324,68,8.5,0.00020,0.00027,37.9,36.7,64,0,100,48.4,14.63,0.00,0.00
15min,AgWx,drainfrm,410,05FEB2018:05:45:00,43.7,12.34,45.6,46.2,47.2,48.7,46.2,64,67,59,0.707,35.6,36.2,34.9,1.82,2.7,345,55,6.8,0.00016,0.00023,37.9,36.9,64,0,100,48.4,14.63,0.00,0.00
15min,AgWx,drainfrm,410,05FEB2018:06:00:00,43.6,12.34,45.3,45.8,46.1,47.1,44.9,67,71,64,0.714,35.7,36.4,35.3,12.06,4.8,356,32,12.1,0.00021,0.00028,37.9,36.9,64,0,100,47.2,14.63,0.00,0.00
15min,AgWx,drainfrm,410,05FEB2018:06:15:00,43.4,12.34,43.6,43.7,45.0,46.4,43.7,70,74,66,0.708,35.8,36.4,35.3,6.927,6.6,5.6,20,14.5,0.00022,0.00028,37.9,36.5,64,0,100,46.0,14.63,0.00,0.00
15min,AgWx,drainfrm,410,05FEB2018:06:30:00,43.0,12.34,42.9,43.6,44.1,45.1,43.1,72,74,69,0.698,35.5,35.8,35.1,4.231,5.8,7.4,16,8.6,0.00019,0.00024,37.9,36.7,64,0,100,45.2,14.63,0.00,0.00
15min,AgWx,drainfrm,410,05FEB2018:06:45:00,42.5,12.34,44.1,45.2,43.6,45.2,43.0,71,73,64,0.658,34.7,35.3,33.7,3.31,4.9,346,22,8.9,0.00018,0.00023,37.8,37.4,64,0,100,44.7,14.63,0.00,0.00
15min,AgWx,drainfrm,410,05FEB2018:07:00:00,42.2,12.34,44.0,44.6,44.7,45.2,44.3,65,66,64,0.648,33.7,33.9,33.4,1.907,4.6,310,22,7.7,0.00021,0.00028,37.9,36.7,64,0,100,45.3,14.63,0.00,0.00
15min,AgWx,drainfrm,410,05FEB2018:07:15:00,42.0,12.33,43.8,44.6,44.8,45.7,43.4,64,69,61,0.650,33.4,33.8,32.9,1.863,3.8,354,21,10.5,0.00019,0.00026,37.9,37.6,64,0,100,45.5,14.63,0.00,0.00
15min,AgWx,drainfrm,410,05FEB2018:07:30:00,41.6,12.33,45.9,46.5,44.7,46.5,43.0,64,68,59,0.637,33.1,33.4,32.8,2.894,2.7,184,60,8.1,0.00016,0.00022,37.9,36.5,64,1,100,45.0,14.63,0.00,0.00
15min,AgWx,drainfrm,410,05FEB2018:07:45:00,41.7,12.33,46.2,46.9,45.6,46.9,44.1,61,65,58,0.639,33.1,33.5,32.8,6.27,5.7,287,17,11.1,0.00027,0.00035,37.8,36.9,64,4,100,46.4,14.63,0.00,0.00
15min,AgWx,drainfrm,410,05FEB2018:08:00:00,42.2,12.33,46.2,46.7,46.3,47.5,44.7,60,64,57,0.641,33.3,33.8,32.8,9.25,8.0,297,22,24.8,0.00035,0.00078,37.8,37.4,64,15,100,47.4,14.63,0.00,0.00